Stations météo

réclame
Mon MeteoGroup
AWG, Pays-Bas (6208): Température de l'air & dewpoint: 06.11.2019 00:00:00 - 12.11.2019 00:00:00 (CET)AWG, Pays-Bas (6208): Vitesse du vent & gusts: 06.11.2019 00:00:00 - 12.11.2019 00:00:00 (CET)AWG, Pays-Bas (6208): Direction du vent: 06.11.2019 00:00:00 - 12.11.2019 00:00:00 (CET)AWG, Pays-Bas (6208): reduced air pressure: 06.11.2019 00:00:00 - 12.11.2019 00:00:00 (CET)AWG, Pays-Bas (6208): visibility: 06.11.2019 00:00:00 - 12.11.2019 00:00:00 (CET)
Date & Time tt [°C] td [°C] ff [km/h] ff [knt] fx [km/h] fx [knt] dd ppp [hPa] vv [km]
12.11.2019 00:00:00 6,1 5,0 50 27 54 29 S 995,8 10
11.11.2019 23:00:00 6,6 5,4 15 8 40 21 - 996,4 4,9
11.11.2019 22:00:00 6,8 5,4 29 16 43 23 SSW 996,5 6
11.11.2019 21:00:00 7,0 5,9 50 27 58 31 - 995,8 2,4
11.11.2019 20:00:00 6,6 5,3 57 31 61 33 S 994,8 10
11.11.2019 19:00:00 6,7 4,7 59 32 61 33 S 995,0 10
11.11.2019 18:00:00 6,7 4,5 55 30 61 33 S 995,4 10
11.11.2019 17:00:00 6,9 4,5 43 23 58 31 S 996,1 10
11.11.2019 16:00:00 7,0 3,8 50 27 54 29 S 996,9 10
11.11.2019 15:00:00 7,0 3,8 48 26 50 27 SE 997,7 10
11.11.2019 14:00:00 6,9 3,7 50 27 54 29 S 998,9 10
11.11.2019 13:00:00 6,4 3,9 42 23 50 27 S 999,9 10
11.11.2019 12:00:00 5,6 3,8 44 24 47 25 SE 1001,2 10
11.11.2019 11:00:00 5,2 3,7 42 23 43 23 S 1002,4 8
11.11.2019 10:00:00 4,5 3,6 42 23 47 25 S 1003,4 7
11.11.2019 09:00:00 3,7 3,1 41 22 47 25 S 1004,4 6
11.11.2019 08:00:00 3,5 2,7 44 24 47 25 S 1004,6 6
11.11.2019 07:00:00 4,1 2,9 42 23 43 23 S 1005,4 7
11.11.2019 06:00:00 4,4 2,5 37 20 40 21 S 1006,2 10
11.11.2019 05:00:00 4,4 3,3 37 20 40 21 S 1007,5 5
11.11.2019 04:00:00 4,1 2,9 37 20 36 19 SSW 1009,1 6
11.11.2019 03:00:00 4,7 3,5 34 18 40 21 SSW 1010,1 6
11.11.2019 02:00:00 5,4 3,8 41 22 43 23 SSW 1010,4 9
11.11.2019 01:00:00 5,7 4,2 31 17 36 19 SSW 1010,9 8
11.11.2019 00:00:00 6,4 5,1 28 15 32 18 SSW 1011,7 7
10.11.2019 23:00:00 7,2 5,3 24 13 29 16 - 1011,7 9
10.11.2019 22:00:00 7,6 5,5 22 12 29 16 SSW 1012,6 10
10.11.2019 21:00:00 7,3 6,1 24 13 32 18 - 1012,8 8
10.11.2019 20:00:00 7,3 6,1 15 8 22 12 S 1013,2 10
10.11.2019 19:00:00 8,1 6,8 22 12 22 12 SW 1013,3 10
10.11.2019 18:00:00 7,8 5,9 21 11 22 12 SSW 1013,2 10
10.11.2019 17:00:00 8,1 6,8 24 13 29 16 SW 1012,9 7
10.11.2019 16:00:00 8,6 6,4 28 15 29 16 SW 1012,6 10
10.11.2019 15:00:00 8,7 6,3 28 15 29 16 SW 1012,4 10
10.11.2019 14:00:00 8,8 6,4 26 14 29 16 SW 1012,0 10
10.11.2019 13:00:00 8,4 5,7 24 13 25 14 WSW 1011,9 10
10.11.2019 12:00:00 8,4 6,8 22 12 29 16 WSW 1011,8 4,8
10.11.2019 11:00:00 7,4 5,8 28 15 32 18 SW 1011,6 10
10.11.2019 10:00:00 7,7 6,1 29 16 29 16 SSW 1010,9 8
10.11.2019 09:00:00 6,9 5,7 29 16 32 18 - 1010,0 9
10.11.2019 08:00:00 7,3 6,3 21 11 25 14 SSW 1009,3 9
10.11.2019 07:00:00 7,4 6,1 26 14 29 16 SW 1008,3 10
10.11.2019 06:00:00 7,4 6,3 26 14 29 16 SW 1008,1 10
10.11.2019 05:00:00 7,3 5,4 28 15 29 16 SSW 1007,4 10
10.11.2019 04:00:00 7,4 5,0 29 16 29 16 SSW 1006,7 10
10.11.2019 03:00:00 7,0 4,8 29 16 32 18 SSW 1006,3 10
10.11.2019 02:00:00 7,4 4,9 31 17 40 21 SSW 1005,8 10
10.11.2019 01:00:00 7,3 5,6 29 16 36 19 SSW 1005,5 10
10.11.2019 00:00:00 7,7 6,3 29 16 40 21 - 1004,8 10
09.11.2019 23:00:00 8,1 6,5 24 13 29 16 SSW 1004,4 10
09.11.2019 22:00:00 8,2 6,6 29 16 32 18 SW 1004,0 10
09.11.2019 21:00:00 8,4 7,6 26 14 29 16 SW 1003,6 10
09.11.2019 20:00:00 8,6 7,1 18 10 22 12 W 1003,0 10
09.11.2019 19:00:00 8,8 8,4 21 11 22 12 SW 1002,5 10
09.11.2019 18:00:00 8,2 7,8 15 8 29 16 WSW 1002,0 10
09.11.2019 17:00:00 7,9 7,3 28 15 36 19 SE 1001,3 8
09.11.2019 16:00:00 7,4 6,5 35 19 40 21 ESE 1001,4 10
09.11.2019 15:00:00 7,5 6,4 39 21 43 23 ESE 1001,9 8
09.11.2019 14:00:00 7,3 6,3 35 19 40 21 ESE 1002,5 6
09.11.2019 13:00:00 6,7 5,7 39 21 40 21 ESE 1003,1 7
09.11.2019 12:00:00 6,1 5,7 35 19 36 19 SE 1003,9 5
09.11.2019 11:00:00 5,1 5,0 34 18 36 19 SE 1004,4 1,1
09.11.2019 10:00:00 4,8 4,5 34 18 32 18 S 1004,7 2,2
09.11.2019 09:00:00 4,2 3,9 35 19 36 19 SE 1004,9 3,0
09.11.2019 08:00:00 4,8 4,2 37 20 36 19 SE 1005,1 4,6
09.11.2019 07:00:00 5,9 4,9 34 18 36 19 SE 1005,2 6
09.11.2019 06:00:00 5,6 4,3 29 16 32 18 SE 1005,6 7
09.11.2019 05:00:00 6,0 4,7 34 18 32 18 SE 1006,0 8
09.11.2019 04:00:00 6,1 4,8 29 16 29 16 SE 1006,2 7
09.11.2019 03:00:00 5,6 4,5 28 15 29 16 SE 1006,3 8
09.11.2019 02:00:00 5,8 4,4 26 14 25 14 S 1006,7 10
09.11.2019 01:00:00 6,3 4,6 28 15 25 14 S 1006,7 10
09.11.2019 00:00:00 5,9 4,7 21 11 25 14 SE 1007,1 10
08.11.2019 23:00:00 6,6 5,2 24 13 22 12 S 1007,3 10
08.11.2019 22:00:00 6,7 5,4 21 11 22 12 SE 1007,5 10
08.11.2019 21:00:00 7,2 5,6 22 12 25 14 S 1007,3 10
08.11.2019 20:00:00 7,8 5,7 26 14 25 14 S 1007,0 10
08.11.2019 19:00:00 7,8 5,6 22 12 25 14 S 1006,8 10
08.11.2019 18:00:00 8,0 5,4 22 12 25 14 S 1006,8 10
08.11.2019 17:00:00 8,5 5,4 22 12 25 14 S 1006,6 10
08.11.2019 16:00:00 8,8 5,7 22 12 25 14 S 1006,0 10
08.11.2019 15:00:00 9,1 5,3 26 14 25 14 S 1005,4 10
08.11.2019 14:00:00 8,8 5,3 22 12 25 14 SSW 1005,2 10
08.11.2019 13:00:00 8,3 5,2 26 14 29 16 S 1005,3 10
08.11.2019 12:00:00 7,5 4,9 28 15 29 16 S 1005,3 10
08.11.2019 11:00:00 6,5 4,7 31 17 36 19 SSW 1005,2 10
08.11.2019 10:00:00 5,6 4,2 41 22 40 21 S 1004,9 10
08.11.2019 09:00:00 5,0 3,9 41 22 43 23 S 1004,4 10
08.11.2019 08:00:00 4,9 3,8 37 20 43 23 S 1003,7 10
08.11.2019 07:00:00 5,1 4,1 39 21 40 21 S 1003,0 10
08.11.2019 06:00:00 5,6 4,5 37 20 40 21 SSW 1002,4 10
08.11.2019 05:00:00 5,7 4,6 37 20 40 21 SSW 1001,8 10
08.11.2019 04:00:00 5,9 4,7 35 19 40 21 S 1001,5 10
08.11.2019 03:00:00 6,4 5,0 41 22 43 23 S 1000,7 10
08.11.2019 02:00:00 7,3 5,6 41 22 43 23 SSW 1000,4 10
08.11.2019 01:00:00 6,7 5,3 39 21 50 27 S 999,9 10
08.11.2019 00:00:00 7,9 5,8 42 23 47 25 SSW 999,1 10
07.11.2019 23:00:00 8,1 6,3 44 24 47 25 SSW 998,5 10
07.11.2019 22:00:00 8,5 6,6 37 20 43 23 SSW 997,8 10
07.11.2019 21:00:00 8,7 6,8 39 21 40 21 SSW 997,2 10
07.11.2019 20:00:00 8,7 7,7 34 18 43 23 SSW 996,6 10
07.11.2019 19:00:00 8,9 8,0 37 20 43 23 E 995,9 3,0
07.11.2019 18:00:00 9,0 7,6 39 21 43 23 E 995,5 6
07.11.2019 17:00:00 9,3 7,4 37 20 43 23 ESE 995,5 7
07.11.2019 16:00:00 9,0 6,8 35 19 43 23 ESE 995,6 10
07.11.2019 15:00:00 8,9 6,4 39 21 43 23 E 995,8 10
07.11.2019 14:00:00 8,7 5,9 35 19 40 21 ESE 996,1 10
07.11.2019 13:00:00 8,5 5,6 34 18 40 21 E 996,5 10
07.11.2019 12:00:00 8,2 5,1 34 18 40 21 E 996,9 10
07.11.2019 11:00:00 8,1 5,0 39 21 40 21 E 997,4 10
07.11.2019 10:00:00 8,0 5,0 37 20 40 21 E 997,8 10
07.11.2019 09:00:00 7,8 5,0 35 19 36 19 E 998,1 10
07.11.2019 08:00:00 7,5 4,9 37 20 36 19 E 998,3 10
07.11.2019 07:00:00 7,3 5,2 28 15 29 16 E 998,7 10
07.11.2019 06:00:00 6,8 5,2 28 15 32 18 ESE 999,0 10
07.11.2019 05:00:00 6,9 2,6 29 16 32 18 SE 999,3 10
07.11.2019 04:00:00 7,0 1,5 22 12 25 14 SE 1000,1 10
07.11.2019 03:00:00 6,9 2,4 22 12 22 12 S 1000,4 10
07.11.2019 02:00:00 6,6 3,1 22 12 25 14 S 1000,9 10
07.11.2019 01:00:00 6,2 3,8 22 12 22 12 S 1001,1 10
07.11.2019 00:00:00 6,5 3,9 16 9 18 10 S 1001,5 10
06.11.2019 23:00:00 6,7 4,2 18 10 22 12 S 1001,9 10
06.11.2019 22:00:00 8,0 4,1 15 8 18 10 SSW 1002,2 10
06.11.2019 21:00:00 8,0 4,1 16 9 22 12 - 1002,4 10
06.11.2019 20:00:00 9,2 -0,8 11 6 14 8 NW 1002,3 10
06.11.2019 19:00:00 8,9 2,7 5 3 18 10 - 1002,5 10
06.11.2019 18:00:00 8,9 1,1 11 6 18 10 NNW 1002,4 10
06.11.2019 17:00:00 8,4 3,6 18 10 25 14 N 1002,3 10
06.11.2019 16:00:00 8,4 2,9 24 13 25 14 N 1002,2 10
06.11.2019 15:00:00 8,0 4,1 21 11 25 14 WNW 1002,2 10
06.11.2019 14:00:00 8,6 4,0 21 11 22 12 N 1002,1 10
06.11.2019 13:00:00 8,4 3,4 22 12 29 16 N 1002,1 10
06.11.2019 12:00:00 8,7 3,4 24 13 25 14 N 1002,0 10
06.11.2019 11:00:00 8,7 3,9 24 13 32 18 N 1002,0 10
06.11.2019 10:00:00 8,6 3,4 26 14 29 16 N 1001,7 10
06.11.2019 09:00:00 8,4 4,4 28 15 32 18 N 1001,6 10
06.11.2019 08:00:00 8,6 3,1 29 16 32 18 N 1001,3 10
06.11.2019 07:00:00 8,6 2,7 31 17 36 19 N 1000,4 10
06.11.2019 06:00:00 9,3 1,8 28 15 36 19 N 1000,3 10
06.11.2019 05:00:00 9,3 3,3 31 17 32 18 N 1000,2 10
06.11.2019 04:00:00 9,2 3,6 26 14 32 18 N 1000,1 10
06.11.2019 03:00:00 9,0 4,6 37 20 36 19 N 1000,1 10
06.11.2019 02:00:00 8,7 6,2 34 18 40 21 N 1000,2 8
06.11.2019 01:00:00 8,7 7,3 29 16 43 23 - 999,7 10
06.11.2019 00:00:00 8,8 7,6 35 19 36 19 NNE 999,7 3,0

tt = Température de l'air
td = dewpoint
ff = Vitesse du vent
fx = gusts
dd = Direction du vent
ppp = reduced air pressure
vv = visibility

stations d'obs. à proximité